Regional Weather Roundup
Issued by NWS

Home | Current Version | Previous Version | Text Only | Print | Product List | Glossary On
Versions: 1 2 3 4 5 6 7 8 9 10 11 12 13 14 15 16 17 18 19 20 21 22 23 24 25 26 27 28 29 30 31 32 33 34 35 36 37 38 39 40 41 42 43 44 45 46 47 48 49 50
368
ASUS44 KLIX 272005
RWRLA
LOUISIANA WEATHER ROUNDUP
NATIONAL WEATHER SERVICE NEW ORLEANS LA
300 PM CDT SUN JUL 27 2014

NOTE: "FAIR" INDICATES FEW OR NO CLOUDS BELOW 12,000 FEET WITH NO
      SIGNIFICANT WEATHER AND/OR OBSTRUCTIONS TO VISIBILITY.
      SKY/WX - SKY CONDITION AND SIGNIFICANT WEATHER.
      TMP - AIR TEMPERATURE.    DP   - DEWPOINT TEMPERATURE.
      RH  - RELATIVE HUMIDITY.  PRES - PRESSURE.
      HX  - HEAT INDEX.         WCI  - WIND CHILL INDEX.

*  THESE STATIONS ARE NOT NWS OR FAA STATIONS AND ARE NOT UNDER
   NWS QUALITY CONTROL.

LAZ040-048-061>063-065-066-069-272100-
SOUTHEAST LOUISIANA

CITY           SKY/WX    TMP DP  RH WIND       PRES   REMARKS
N.O. AUDUBON     N/A     96  75  50 MISG        N/A  HX 108
N.O. INTL ARPT MOSUNNY   93  70  46 W7        30.05F HX  99
N.O. LAKEFRONT MOSUNNY   91  75  59 NW8       30.06F HX 101
N.O. DOWNTOWN* CLOUDY    93  72  49 SW10G17   30.05F HX 100
SLIDELL        MOSUNNY   92  71  50 SW8       30.05F HX  98
BATON ROUGE    PTSUNNY   93  73  52 NW8       30.05F HX 102
BOOTHVILLE     MOSUNNY   88  77  69 SW12      30.08F HX 100
BELLE CHASSE   PTSUNNY   92  72  51 SW7       30.05F HX  99
BOGALUSA*      FAIR      93  71  47 W9        30.06F HX 100
GALLIANO*      NOT AVBL
NEW ROADS*     FAIR      92  73  52 SW5       30.05F HX 100
GONZALES*      FAIR      92  73  52 W5        30.05F HX 101
HAMMOND*       MOSUNNY   93  68  43 W8        30.07F HX  97
HOUMA*         NOT AVBL
PORT FOURCHON* PTCLDY    88  77  70 W12       30.10F HX 100

$$

LAZ041-044-053-054-272100-
SOUTHWEST LOUISIANA

CITY           SKY/WX    TMP DP  RH WIND       PRES   REMARKS
LAKE CHARLES   MOSUNNY   92  76  59 SW9G17    30.05F HX 104
LAFAYETTE      PTSUNNY   91  74  57 W10       30.06F HX 100
PATTERSON      PTSUNNY   91  79  66 SW12G20   30.11F HX 107
SALT POINT       N/A     91  80  70 VRB6      30.07F HX 109
NEW IBERIA     MOSUNNY   92  77  61 S10       30.06F HX 105
CHENAULT AIRPK MOSUNNY   93  73  52 SW9       30.06F HX 102

$$

LAZ027-028-272100-
CENTRAL LOUISIANA

CITY           SKY/WX    TMP DP  RH WIND       PRES   REMARKS
FORT POLK      MOSUNNY   91  71  51 SW9       30.05F HX  97
ALEXANDRIA INT MOSUNNY   94  73  50 VRB5      30.02F HX 103
ALEXANDRIA     SUNNY     95  72  47 W9        30.03F HX 103

$$

LAZ001-002-272100-
NORTHWEST LOUISIANA

CITY           SKY/WX    TMP DP  RH WIND       PRES   REMARKS
SHREVEPORT     MOSUNNY   94  71  47 W8        30.02F HX 101
BARKSDALE AFB  SUNNY     94  71  47 SW7       30.02F HX 100
DTN SHREVEPORT SUNNY     93  72  50 VRB7      30.02F HX 101

$$

LAZ014-016-272100-
NORTHEAST LOUISIANA

CITY           SKY/WX    TMP DP  RH WIND       PRES   REMARKS
MONROE         PTSUNNY   94  73  50 W10       30.02F HX 103
TALLULAH       MOSUNNY   93  74  53 VRB5      30.02F HX 103

$$




USA.gov is the U.S. government's official web portal to all federal, state and local government web resources and services.